owner,sensor,date,latitude,longitude,vertical_datum,sea_water_practical_salinity,qcFlag 
TABS,ioos:station:wmo:42051:1,2013-07-01T00:00:00Z,29.6350,-93.6417,2.0,31.7244,11111222 
TABS,ioos:station:wmo:42051:1,2013-07-01T00:30:00Z,29.6350,-93.6417,2.0,31.7291,11111222 
TABS,ioos:station:wmo:42051:1,2013-07-01T01:00:00Z,29.6350,-93.6417,2.0,31.7533,11111222 
TABS,ioos:station:wmo:42051:1,2013-07-01T01:30:00Z,29.6350,-93.6417,2.0,31.772,11111222 
TABS,ioos:station:wmo:42051:1,2013-07-01T02:00:00Z,29.6350,-93.6417,2.0,31.7886,11111222 
TABS,ioos:station:wmo:42051:1,2013-07-01T02:30:00Z,29.6350,-93.6417,2.0,31.8062,11111222 
TABS,ioos:station:wmo:42051:1,2013-07-01T03:00:00Z,29.6350,-93.6417,2.0,31.8396,11111222 
TABS,ioos:station:wmo:42051:1,2013-07-01T03:30:00Z,29.6350,-93.6417,2.0,31.8586,11111222 
TABS,ioos:station:wmo:42051:1,2013-07-01T04:00:00Z,29.6350,-93.6417,2.0,31.8826,11111222 
TABS,ioos:station:wmo:42051:1,2013-07-01T04:30:00Z,29.6350,-93.6417,2.0,31.9073,11111222 
TABS,ioos:station:wmo:42051:1,2013-07-01T05:00:00Z,29.6350,-93.6417,2.0,31.9239,11111222 
TABS,ioos:station:wmo:42051:1,2013-07-01T05:30:00Z,29.6350,-93.6417,2.0,31.9278,11111222 
TABS,ioos:station:wmo:42051:1,2013-07-01T06:00:00Z,29.6350,-93.6417,2.0,31.8113,11111222 
TABS,ioos:station:wmo:42051:1,2013-07-01T06:30:00Z,29.6350,-93.6417,2.0,31.7956,11111222 
TABS,ioos:station:wmo:42051:1,2013-07-01T07:00:00Z,29.6350,-93.6417,2.0,31.7596,11111222 
TABS,ioos:station:wmo:42051:1,2013-07-01T07:30:00Z,29.6350,-93.6417,2.0,31.7608,11111222 
TABS,ioos:station:wmo:42051:1,2013-07-01T08:00:00Z,29.6350,-93.6417,2.0,31.7421,11111222 
TABS,ioos:station:wmo:42051:1,2013-07-01T08:30:00Z,29.6350,-93.6417,2.0,31.7609,11111222 
TABS,ioos:station:wmo:42051:1,2013-07-01T09:00:00Z,29.6350,-93.6417,2.0,31.7609,11111222 
TABS,ioos:station:wmo:42051:1,2013-07-01T09:30:00Z,29.6350,-93.6417,2.0,31.7664,11111222 
TABS,ioos:station:wmo:42051:1,2013-07-01T10:00:00Z,29.6350,-93.6417,2.0,31.7663,11111222 
TABS,ioos:station:wmo:42051:1,2013-07-01T10:30:00Z,29.6350,-93.6417,2.0,31.7618,11111222 
TABS,ioos:station:wmo:42051:1,2013-07-01T11:00:00Z,29.6350,-93.6417,2.0,31.7626,11111222 
TABS,ioos:station:wmo:42051:1,2013-07-01T11:30:00Z,29.6350,-93.6417,2.0,31.7783,11111222 
TABS,ioos:station:wmo:42051:1,2013-07-01T12:00:00Z,29.6350,-93.6417,2.0,31.77,11111222 
TABS,ioos:station:wmo:42051:1,2013-07-01T12:30:00Z,29.6350,-93.6417,2.0,31.7659,11111222 
TABS,ioos:station:wmo:42051:1,2013-07-01T13:00:00Z,29.6350,-93.6417,2.0,31.7653,11111222 
TABS,ioos:station:wmo:42051:1,2013-07-01T13:30:00Z,29.6350,-93.6417,2.0,31.7662,11111222 
TABS,ioos:station:wmo:42051:1,2013-07-01T14:00:00Z,29.6350,-93.6417,2.0,31.7578,11111222 
TABS,ioos:station:wmo:42051:1,2013-07-01T14:30:00Z,29.6350,-93.6417,2.0,31.7565,11111222 
TABS,ioos:station:wmo:42051:1,2013-07-01T15:00:00Z,29.6350,-93.6417,2.0,31.758,11111222 
TABS,ioos:station:wmo:42051:1,2013-07-01T15:30:00Z,29.6350,-93.6417,2.0,31.7359,11111222 
TABS,ioos:station:wmo:42051:1,2013-07-01T16:00:00Z,29.6350,-93.6417,2.0,31.7346,11111222 
TABS,ioos:station:wmo:42051:1,2013-07-01T16:30:00Z,29.6350,-93.6417,2.0,31.6898,11111222 
TABS,ioos:station:wmo:42051:1,2013-07-01T17:00:00Z,29.6350,-93.6417,2.0,31.6774,11111222 
TABS,ioos:station:wmo:42051:1,2013-07-01T17:30:00Z,29.6350,-93.6417,2.0,31.6711,11111222 
TABS,ioos:station:wmo:42051:1,2013-07-01T18:00:00Z,29.6350,-93.6417,2.0,31.6623,11111222 
TABS,ioos:station:wmo:42051:1,2013-07-01T18:30:00Z,29.6350,-93.6417,2.0,31.6626,11111222 
TABS,ioos:station:wmo:42051:1,2013-07-01T19:00:00Z,29.6350,-93.6417,2.0,31.6596,11111222 
TABS,ioos:station:wmo:42051:1,2013-07-01T19:30:00Z,29.6350,-93.6417,2.0,31.656,11111222 
TABS,ioos:station:wmo:42051:1,2013-07-01T20:00:00Z,29.6350,-93.6417,2.0,31.6553,11111222 
TABS,ioos:station:wmo:42051:1,2013-07-01T20:30:00Z,29.6350,-93.6417,2.0,31.6508,11111222 
TABS,ioos:station:wmo:42051:1,2013-07-01T21:00:00Z,29.6350,-93.6417,2.0,31.6532,11111222 
TABS,ioos:station:wmo:42051:1,2013-07-01T21:30:00Z,29.6350,-93.6417,2.0,31.6494,11111222 
TABS,ioos:station:wmo:42051:1,2013-07-01T22:00:00Z,29.6350,-93.6417,2.0,31.6451,11111222 
TABS,ioos:station:wmo:42051:1,2013-07-01T22:30:00Z,29.6350,-93.6417,2.0,31.6425,11111222 
TABS,ioos:station:wmo:42051:1,2013-07-01T23:00:00Z,29.6350,-93.6417,2.0,31.6445,11111222 
TABS,ioos:station:wmo:42051:1,2013-07-01T23:30:00Z,29.6350,-93.6417,2.0,31.6461,11111222 
TABS,ioos:station:wmo:42051:1,2013-07-02T00:00:00Z,29.6350,-93.6417,2.0,31.6468,11111222 
TABS,ioos:station:wmo:42051:1,2013-07-02T00:30:00Z,29.6350,-93.6417,2.0,31.6468,11111222 
TABS,ioos:station:wmo:42051:1,2013-07-02T01:00:00Z,29.6350,-93.6417,2.0,31.6465,11111222 
TABS,ioos:station:wmo:42051:1,2013-07-02T01:30:00Z,29.6350,-93.6417,2.0,31.6445,11111222 
TABS,ioos:station:wmo:42051:1,2013-07-02T02:00:00Z,29.6350,-93.6417,2.0,31.645,11111222 
TABS,ioos:station:wmo:42051:1,2013-07-02T02:30:00Z,29.6350,-93.6417,2.0,31.6487,11111222 
TABS,ioos:station:wmo:42051:1,2013-07-02T03:00:00Z,29.6350,-93.6417,2.0,31.6487,11111222 
TABS,ioos:station:wmo:42051:1,2013-07-02T03:30:00Z,29.6350,-93.6417,2.0,31.6516,11111222 
TABS,ioos:station:wmo:42051:1,2013-07-02T04:00:00Z,29.6350,-93.6417,2.0,31.6569,11111222 
TABS,ioos:station:wmo:42051:1,2013-07-02T04:30:00Z,29.6350,-93.6417,2.0,31.6745,11111222 
TABS,ioos:station:wmo:42051:1,2013-07-02T05:00:00Z,29.6350,-93.6417,2.0,31.6868,11111222 
TABS,ioos:station:wmo:42051:1,2013-07-02T05:30:00Z,29.6350,-93.6417,2.0,31.692,11111222 
TABS,ioos:station:wmo:42051:1,2013-07-02T06:00:00Z,29.6350,-93.6417,2.0,31.6935,11111222 
TABS,ioos:station:wmo:42051:1,2013-07-02T06:30:00Z,29.6350,-93.6417,2.0,31.694,11111222 
TABS,ioos:station:wmo:42051:1,2013-07-02T07:00:00Z,29.6350,-93.6417,2.0,31.6871,11111222 
TABS,ioos:station:wmo:42051:1,2013-07-02T07:30:00Z,29.6350,-93.6417,2.0,31.6904,11111222 
TABS,ioos:station:wmo:42051:1,2013-07-02T08:00:00Z,29.6350,-93.6417,2.0,31.6965,11111222 
TABS,ioos:station:wmo:42051:1,2013-07-02T08:30:00Z,29.6350,-93.6417,2.0,31.6967,11111222 
TABS,ioos:station:wmo:42051:1,2013-07-02T09:00:00Z,29.6350,-93.6417,2.0,31.7003,11111222 
TABS,ioos:station:wmo:42051:1,2013-07-02T09:30:00Z,29.6350,-93.6417,2.0,31.7063,11111222 
TABS,ioos:station:wmo:42051:1,2013-07-02T10:00:00Z,29.6350,-93.6417,2.0,31.7095,11111222 
TABS,ioos:station:wmo:42051:1,2013-07-02T10:30:00Z,29.6350,-93.6417,2.0,31.7186,11111222 
TABS,ioos:station:wmo:42051:1,2013-07-02T11:00:00Z,29.6350,-93.6417,2.0,31.7281,11111222 
TABS,ioos:station:wmo:42051:1,2013-07-02T11:30:00Z,29.6350,-93.6417,2.0,31.7263,11111222 
TABS,ioos:station:wmo:42051:1,2013-07-02T12:00:00Z,29.6350,-93.6417,2.0,31.7283,11111222 
TABS,ioos:station:wmo:42051:1,2013-07-02T12:30:00Z,29.6350,-93.6417,2.0,31.7366,11111222 
TABS,ioos:station:wmo:42051:1,2013-07-02T13:00:00Z,29.6350,-93.6417,2.0,31.7511,11111222 
TABS,ioos:station:wmo:42051:1,2013-07-02T13:30:00Z,29.6350,-93.6417,2.0,31.758,11111222 
TABS,ioos:station:wmo:42051:1,2013-07-02T14:00:00Z,29.6350,-93.6417,2.0,31.764,11111222 
TABS,ioos:station:wmo:42051:1,2013-07-02T14:30:00Z,29.6350,-93.6417,2.0,31.7659,11111222 
TABS,ioos:station:wmo:42051:1,2013-07-02T15:00:00Z,29.6350,-93.6417,2.0,31.7699,11111222 
TABS,ioos:station:wmo:42051:1,2013-07-02T15:30:00Z,29.6350,-93.6417,2.0,31.7776,11111222 
TABS,ioos:station:wmo:42051:1,2013-07-02T16:00:00Z,29.6350,-93.6417,2.0,31.7811,11111222 
TABS,ioos:station:wmo:42051:1,2013-07-02T16:30:00Z,29.6350,-93.6417,2.0,31.7802,11111222 
TABS,ioos:station:wmo:42051:1,2013-07-02T17:00:00Z,29.6350,-93.6417,2.0,31.7866,11111222 
TABS,ioos:station:wmo:42051:1,2013-07-02T17:30:00Z,29.6350,-93.6417,2.0,31.7853,11111222 
TABS,ioos:station:wmo:42051:1,2013-07-02T18:00:00Z,29.6350,-93.6417,2.0,31.8068,11111222 
TABS,ioos:station:wmo:42051:1,2013-07-02T18:30:00Z,29.6350,-93.6417,2.0,31.8141,11111222 
TABS,ioos:station:wmo:42051:1,2013-07-02T19:00:00Z,29.6350,-93.6417,2.0,31.7997,11111222 
TABS,ioos:station:wmo:42051:1,2013-07-02T19:30:00Z,29.6350,-93.6417,2.0,31.8187,11111222 
TABS,ioos:station:wmo:42051:1,2013-07-02T20:00:00Z,29.6350,-93.6417,2.0,31.8273,11111222 
TABS,ioos:station:wmo:42051:1,2013-07-02T20:30:00Z,29.6350,-93.6417,2.0,31.8016,11111222 
TABS,ioos:station:wmo:42051:1,2013-07-02T21:00:00Z,29.6350,-93.6417,2.0,31.901,11111222 
TABS,ioos:station:wmo:42051:1,2013-07-02T21:30:00Z,29.6350,-93.6417,2.0,31.8196,11111222 
TABS,ioos:station:wmo:42051:1,2013-07-02T22:00:00Z,29.6350,-93.6417,2.0,31.8172,11111222 
TABS,ioos:station:wmo:42051:1,2013-07-02T22:30:00Z,29.6350,-93.6417,2.0,31.806,11111222 
TABS,ioos:station:wmo:42051:1,2013-07-02T23:00:00Z,29.6350,-93.6417,2.0,31.8135,11111222 
TABS,ioos:station:wmo:42051:1,2013-07-02T23:30:00Z,29.6350,-93.6417,2.0,31.8633,11111222 
TABS,ioos:station:wmo:42051:1,2013-07-03T00:00:00Z,29.6350,-93.6417,2.0,31.8255,11111222 
TABS,ioos:station:wmo:42051:1,2013-07-03T00:30:00Z,29.6350,-93.6417,2.0,31.8447,11111222 
TABS,ioos:station:wmo:42051:1,2013-07-03T01:00:00Z,29.6350,-93.6417,2.0,31.8877,11111222 
TABS,ioos:station:wmo:42051:1,2013-07-03T01:30:00Z,29.6350,-93.6417,2.0,31.8867,11111222 
TABS,ioos:station:wmo:42051:1,2013-07-03T02:00:00Z,29.6350,-93.6417,2.0,31.8641,11111222 
TABS,ioos:station:wmo:42051:1,2013-07-03T02:30:00Z,29.6350,-93.6417,2.0,31.8061,11111222 
TABS,ioos:station:wmo:42051:1,2013-07-03T03:00:00Z,29.6350,-93.6417,2.0,31.7651,11111222 
TABS,ioos:station:wmo:42051:1,2013-07-03T03:30:00Z,29.6350,-93.6417,2.0,31.7611,11111222 
TABS,ioos:station:wmo:42051:1,2013-07-03T04:00:00Z,29.6350,-93.6417,2.0,31.7566,11111222 
TABS,ioos:station:wmo:42051:1,2013-07-03T04:30:00Z,29.6350,-93.6417,2.0,31.7494,11111222 
TABS,ioos:station:wmo:42051:1,2013-07-03T05:00:00Z,29.6350,-93.6417,2.0,30.4298,11111222 
TABS,ioos:station:wmo:42051:1,2013-07-03T05:30:00Z,29.6350,-93.6417,2.0,30.4546,11111222 
TABS,ioos:station:wmo:42051:1,2013-07-03T06:00:00Z,29.6350,-93.6417,2.0,30.0722,11111222 
TABS,ioos:station:wmo:42051:1,2013-07-03T06:30:00Z,29.6350,-93.6417,2.0,30.1287,11111222 
TABS,ioos:station:wmo:42051:1,2013-07-03T07:00:00Z,29.6350,-93.6417,2.0,31.8398,11111222 
TABS,ioos:station:wmo:42051:1,2013-07-03T07:30:00Z,29.6350,-93.6417,2.0,31.841,11111222 
TABS,ioos:station:wmo:42051:1,2013-07-03T08:00:00Z,29.6350,-93.6417,2.0,31.8423,11111222 
TABS,ioos:station:wmo:42051:1,2013-07-03T08:30:00Z,29.6350,-93.6417,2.0,31.846,11111222 
TABS,ioos:station:wmo:42051:1,2013-07-03T09:00:00Z,29.6350,-93.6417,2.0,31.8516,11111222 
TABS,ioos:station:wmo:42051:1,2013-07-03T09:30:00Z,29.6350,-93.6417,2.0,31.8625,11111222 
TABS,ioos:station:wmo:42051:1,2013-07-03T10:00:00Z,29.6350,-93.6417,2.0,31.8663,11111222 
TABS,ioos:station:wmo:42051:1,2013-07-03T10:30:00Z,29.6350,-93.6417,2.0,31.8723,11111222 
TABS,ioos:station:wmo:42051:1,2013-07-03T11:00:00Z,29.6350,-93.6417,2.0,31.8796,11111222 
TABS,ioos:station:wmo:42051:1,2013-07-03T11:30:00Z,29.6350,-93.6417,2.0,31.8835,11111222 
TABS,ioos:station:wmo:42051:1,2013-07-03T12:00:00Z,29.6350,-93.6417,2.0,31.8958,11111222 
TABS,ioos:station:wmo:42051:1,2013-07-03T12:30:00Z,29.6350,-93.6417,2.0,31.8947,11111222 
TABS,ioos:station:wmo:42051:1,2013-07-03T13:00:00Z,29.6350,-93.6417,2.0,31.9002,11111222 
TABS,ioos:station:wmo:42051:1,2013-07-03T13:30:00Z,29.6350,-93.6417,2.0,31.9038,11111222 
TABS,ioos:station:wmo:42051:1,2013-07-03T14:00:00Z,29.6350,-93.6417,2.0,31.8997,11111222 
TABS,ioos:station:wmo:42051:1,2013-07-03T14:30:00Z,29.6350,-93.6417,2.0,31.9025,11111222 
TABS,ioos:station:wmo:42051:1,2013-07-03T15:00:00Z,29.6350,-93.6417,2.0,31.9068,11111222 
TABS,ioos:station:wmo:42051:1,2013-07-03T15:30:00Z,29.6350,-93.6417,2.0,31.911,11111222 
TABS,ioos:station:wmo:42051:1,2013-07-03T16:00:00Z,29.6350,-93.6417,2.0,31.9187,11111222 
TABS,ioos:station:wmo:42051:1,2013-07-03T16:30:00Z,29.6350,-93.6417,2.0,31.931,11111222 
TABS,ioos:station:wmo:42051:1,2013-07-03T17:00:00Z,29.6350,-93.6417,2.0,31.9453,11111222 
TABS,ioos:station:wmo:42051:1,2013-07-03T17:30:00Z,29.6350,-93.6417,2.0,31.9402,11111222 
TABS,ioos:station:wmo:42051:1,2013-07-03T18:00:00Z,29.6350,-93.6417,2.0,31.9532,11111222 
TABS,ioos:station:wmo:42051:1,2013-07-03T18:30:00Z,29.6350,-93.6417,2.0,31.9789,11111222 
TABS,ioos:station:wmo:42051:1,2013-07-03T19:00:00Z,29.6350,-93.6417,2.0,31.9649,11111222 
TABS,ioos:station:wmo:42051:1,2013-07-03T19:30:00Z,29.6350,-93.6417,2.0,31.9722,11111222 
TABS,ioos:station:wmo:42051:1,2013-07-03T20:00:00Z,29.6350,-93.6417,2.0,31.969,11111222 
TABS,ioos:station:wmo:42051:1,2013-07-03T20:30:00Z,29.6350,-93.6417,2.0,31.9824,11111222 
TABS,ioos:station:wmo:42051:1,2013-07-03T21:00:00Z,29.6350,-93.6417,2.0,31.9996,11111222 
TABS,ioos:station:wmo:42051:1,2013-07-03T21:30:00Z,29.6350,-93.6417,2.0,32.0051,11111222 
TABS,ioos:station:wmo:42051:1,2013-07-03T22:00:00Z,29.6350,-93.6417,2.0,31.9644,11111222 
TABS,ioos:station:wmo:42051:1,2013-07-03T22:30:00Z,29.6350,-93.6417,2.0,31.9809,11111222 
TABS,ioos:station:wmo:42051:1,2013-07-03T23:00:00Z,29.6350,-93.6417,2.0,31.9822,11111222 
TABS,ioos:station:wmo:42051:1,2013-07-03T23:30:00Z,29.6350,-93.6417,2.0,31.9731,11111222 
TABS,ioos:station:wmo:42051:1,2013-07-04T00:00:00Z,29.6350,-93.6417,2.0,31.9778,11111222 
TABS,ioos:station:wmo:42051:1,2013-07-04T00:30:00Z,29.6350,-93.6417,2.0,31.9722,11111222 
TABS,ioos:station:wmo:42051:1,2013-07-04T01:00:00Z,29.6350,-93.6417,2.0,31.9769,11111222 
TABS,ioos:station:wmo:42051:1,2013-07-04T01:30:00Z,29.6350,-93.6417,2.0,31.9757,11111222 
TABS,ioos:station:wmo:42051:1,2013-07-04T02:00:00Z,29.6350,-93.6417,2.0,31.976,11111222 
TABS,ioos:station:wmo:42051:1,2013-07-04T02:30:00Z,29.6350,-93.6417,2.0,31.9757,11111222 
TABS,ioos:station:wmo:42051:1,2013-07-04T03:00:00Z,29.6350,-93.6417,2.0,31.9852,11111222 
TABS,ioos:station:wmo:42051:1,2013-07-04T03:30:00Z,29.6350,-93.6417,2.0,31.994,11111222 
TABS,ioos:station:wmo:42051:1,2013-07-04T04:00:00Z,29.6350,-93.6417,2.0,31.9935,11111222 
TABS,ioos:station:wmo:42051:1,2013-07-04T04:30:00Z,29.6350,-93.6417,2.0,31.9996,11111222 
TABS,ioos:station:wmo:42051:1,2013-07-04T05:00:00Z,29.6350,-93.6417,2.0,32.0062,11111222 
TABS,ioos:station:wmo:42051:1,2013-07-04T05:30:00Z,29.6350,-93.6417,2.0,32.0113,11111222 
TABS,ioos:station:wmo:42051:1,2013-07-04T06:00:00Z,29.6350,-93.6417,2.0,32.0168,11111222 
TABS,ioos:station:wmo:42051:1,2013-07-04T06:30:00Z,29.6350,-93.6417,2.0,32.0213,11111222 
TABS,ioos:station:wmo:42051:1,2013-07-04T07:00:00Z,29.6350,-93.6417,2.0,32.0235,11111222 
TABS,ioos:station:wmo:42051:1,2013-07-04T07:30:00Z,29.6350,-93.6417,2.0,32.0251,11111222 
TABS,ioos:station:wmo:42051:1,2013-07-04T08:00:00Z,29.6350,-93.6417,2.0,32.0311,11111222 
TABS,ioos:station:wmo:42051:1,2013-07-04T08:30:00Z,29.6350,-93.6417,2.0,32.0362,11111222 
TABS,ioos:station:wmo:42051:1,2013-07-04T09:00:00Z,29.6350,-93.6417,2.0,32.0402,11111222 
TABS,ioos:station:wmo:42051:1,2013-07-04T09:30:00Z,29.6350,-93.6417,2.0,32.0456,11111222 
TABS,ioos:station:wmo:42051:1,2013-07-04T10:00:00Z,29.6350,-93.6417,2.0,32.0464,11111222 
TABS,ioos:station:wmo:42051:1,2013-07-04T10:30:00Z,29.6350,-93.6417,2.0,32.0473,11111222 
TABS,ioos:station:wmo:42051:1,2013-07-04T11:00:00Z,29.6350,-93.6417,2.0,32.0406,11111222 
TABS,ioos:station:wmo:42051:1,2013-07-04T11:30:00Z,29.6350,-93.6417,2.0,32.034,11111222 
TABS,ioos:station:wmo:42051:1,2013-07-04T12:00:00Z,29.6350,-93.6417,2.0,32.022,11111222 
TABS,ioos:station:wmo:42051:1,2013-07-04T12:30:00Z,29.6350,-93.6417,2.0,32.0144,11111222 
TABS,ioos:station:wmo:42051:1,2013-07-04T13:00:00Z,29.6350,-93.6417,2.0,32.0069,11111222 
TABS,ioos:station:wmo:42051:1,2013-07-04T13:30:00Z,29.6350,-93.6417,2.0,31.9952,11111222 
TABS,ioos:station:wmo:42051:1,2013-07-04T14:00:00Z,29.6350,-93.6417,2.0,31.9866,11111222 
TABS,ioos:station:wmo:42051:1,2013-07-04T14:30:00Z,29.6350,-93.6417,2.0,31.9812,11111222 
TABS,ioos:station:wmo:42051:1,2013-07-04T15:00:00Z,29.6350,-93.6417,2.0,31.9755,11111222 
TABS,ioos:station:wmo:42051:1,2013-07-04T15:30:00Z,29.6350,-93.6417,2.0,31.9749,11111222 
TABS,ioos:station:wmo:42051:1,2013-07-04T16:00:00Z,29.6350,-93.6417,2.0,31.9642,11111222 
TABS,ioos:station:wmo:42051:1,2013-07-04T16:30:00Z,29.6350,-93.6417,2.0,31.9368,11111222 
TABS,ioos:station:wmo:42051:1,2013-07-04T17:00:00Z,29.6350,-93.6417,2.0,31.9328,11111222 
TABS,ioos:station:wmo:42051:1,2013-07-04T17:30:00Z,29.6350,-93.6417,2.0,31.9326,11111222 
TABS,ioos:station:wmo:42051:1,2013-07-04T18:00:00Z,29.6350,-93.6417,2.0,31.9103,11111222 
TABS,ioos:station:wmo:42051:1,2013-07-04T18:30:00Z,29.6350,-93.6417,2.0,31.8868,11111222 
TABS,ioos:station:wmo:42051:1,2013-07-04T19:00:00Z,29.6350,-93.6417,2.0,31.8886,11111222 
TABS,ioos:station:wmo:42051:1,2013-07-04T19:30:00Z,29.6350,-93.6417,2.0,31.9085,11111222 
TABS,ioos:station:wmo:42051:1,2013-07-04T20:00:00Z,29.6350,-93.6417,2.0,31.8722,11111222 
TABS,ioos:station:wmo:42051:1,2013-07-04T20:30:00Z,29.6350,-93.6417,2.0,31.8994,11111222 
TABS,ioos:station:wmo:42051:1,2013-07-04T21:00:00Z,29.6350,-93.6417,2.0,31.8789,11111222 
TABS,ioos:station:wmo:42051:1,2013-07-04T21:30:00Z,29.6350,-93.6417,2.0,31.8746,11111222 
TABS,ioos:station:wmo:42051:1,2013-07-04T22:00:00Z,29.6350,-93.6417,2.0,31.87,11111222 
TABS,ioos:station:wmo:42051:1,2013-07-04T22:30:00Z,29.6350,-93.6417,2.0,31.9045,11111222 
TABS,ioos:station:wmo:42051:1,2013-07-04T23:00:00Z,29.6350,-93.6417,2.0,31.8774,11111222 
TABS,ioos:station:wmo:42051:1,2013-07-04T23:30:00Z,29.6350,-93.6417,2.0,31.9631,11111222 
TABS,ioos:station:wmo:42051:1,2013-07-05T00:00:00Z,29.6350,-93.6417,2.0,31.9299,11111222 
TABS,ioos:station:wmo:42051:1,2013-07-05T00:30:00Z,29.6350,-93.6417,2.0,31.9178,11111222 
TABS,ioos:station:wmo:42051:1,2013-07-05T01:00:00Z,29.6350,-93.6417,2.0,31.9155,11111222 
TABS,ioos:station:wmo:42051:1,2013-07-05T01:30:00Z,29.6350,-93.6417,2.0,31.9257,11111222 
TABS,ioos:station:wmo:42051:1,2013-07-05T02:00:00Z,29.6350,-93.6417,2.0,31.9345,11111222 
TABS,ioos:station:wmo:42051:1,2013-07-05T02:30:00Z,29.6350,-93.6417,2.0,31.9313,11111222 
TABS,ioos:station:wmo:42051:1,2013-07-05T03:00:00Z,29.6350,-93.6417,2.0,31.9279,11111222 
TABS,ioos:station:wmo:42051:1,2013-07-05T03:30:00Z,29.6350,-93.6417,2.0,31.9183,11111222 
TABS,ioos:station:wmo:42051:1,2013-07-05T04:00:00Z,29.6350,-93.6417,2.0,31.9235,11111222 
TABS,ioos:station:wmo:42051:1,2013-07-05T04:30:00Z,29.6350,-93.6417,2.0,31.9208,11111222 
TABS,ioos:station:wmo:42051:1,2013-07-05T05:00:00Z,29.6350,-93.6417,2.0,31.9249,11111222 
TABS,ioos:station:wmo:42051:1,2013-07-05T05:30:00Z,29.6350,-93.6417,2.0,31.917,11111222 
TABS,ioos:station:wmo:42051:1,2013-07-05T06:00:00Z,29.6350,-93.6417,2.0,31.9259,11111222 
TABS,ioos:station:wmo:42051:1,2013-07-05T06:30:00Z,29.6350,-93.6417,2.0,31.9209,11111222 
TABS,ioos:station:wmo:42051:1,2013-07-05T07:00:00Z,29.6350,-93.6417,2.0,31.9168,11111222 
TABS,ioos:station:wmo:42051:1,2013-07-05T07:30:00Z,29.6350,-93.6417,2.0,31.9103,11111222 
TABS,ioos:station:wmo:42051:1,2013-07-05T08:00:00Z,29.6350,-93.6417,2.0,31.9072,11111222 
TABS,ioos:station:wmo:42051:1,2013-07-05T08:30:00Z,29.6350,-93.6417,2.0,31.9074,11111222 
TABS,ioos:station:wmo:42051:1,2013-07-05T09:00:00Z,29.6350,-93.6417,2.0,31.9021,11111222 
TABS,ioos:station:wmo:42051:1,2013-07-05T09:30:00Z,29.6350,-93.6417,2.0,31.9011,11111222 
TABS,ioos:station:wmo:42051:1,2013-07-05T10:00:00Z,29.6350,-93.6417,2.0,31.9662,11111222 
TABS,ioos:station:wmo:42051:1,2013-07-05T10:30:00Z,29.6350,-93.6417,2.0,31.9913,11111222 
TABS,ioos:station:wmo:42051:1,2013-07-05T11:00:00Z,29.6350,-93.6417,2.0,32.0031,11111222 
TABS,ioos:station:wmo:42051:1,2013-07-05T11:30:00Z,29.6350,-93.6417,2.0,31.9985,11111222 
TABS,ioos:station:wmo:42051:1,2013-07-05T12:00:00Z,29.6350,-93.6417,2.0,32.0001,11111222 
TABS,ioos:station:wmo:42051:1,2013-07-05T12:30:00Z,29.6350,-93.6417,2.0,32.0002,11111222 
TABS,ioos:station:wmo:42051:1,2013-07-05T13:00:00Z,29.6350,-93.6417,2.0,32.0021,11111222 
TABS,ioos:station:wmo:42051:1,2013-07-05T13:30:00Z,29.6350,-93.6417,2.0,32.0129,11111222 
TABS,ioos:station:wmo:42051:1,2013-07-05T14:00:00Z,29.6350,-93.6417,2.0,32.0093,11111222 
TABS,ioos:station:wmo:42051:1,2013-07-05T14:30:00Z,29.6350,-93.6417,2.0,32.0157,11111222 
TABS,ioos:station:wmo:42051:1,2013-07-05T15:00:00Z,29.6350,-93.6417,2.0,32.0174,11111222 
TABS,ioos:station:wmo:42051:1,2013-07-05T15:30:00Z,29.6350,-93.6417,2.0,32.0172,11111222 
TABS,ioos:station:wmo:42051:1,2013-07-05T16:00:00Z,29.6350,-93.6417,2.0,32.0265,11111222 
TABS,ioos:station:wmo:42051:1,2013-07-05T16:30:00Z,29.6350,-93.6417,2.0,32.0179,11111222 
TABS,ioos:station:wmo:42051:1,2013-07-05T17:00:00Z,29.6350,-93.6417,2.0,32.0205,11111222 
TABS,ioos:station:wmo:42051:1,2013-07-05T17:30:00Z,29.6350,-93.6417,2.0,32.0203,11111222 
TABS,ioos:station:wmo:42051:1,2013-07-05T18:00:00Z,29.6350,-93.6417,2.0,32.023,11111222 
TABS,ioos:station:wmo:42051:1,2013-07-05T18:30:00Z,29.6350,-93.6417,2.0,32.0134,11111222 
TABS,ioos:station:wmo:42051:1,2013-07-05T19:00:00Z,29.6350,-93.6417,2.0,32.029,11111222 
TABS,ioos:station:wmo:42051:1,2013-07-05T19:30:00Z,29.6350,-93.6417,2.0,32.039,11111222 
TABS,ioos:station:wmo:42051:1,2013-07-05T20:00:00Z,29.6350,-93.6417,2.0,32.0062,11111222 
TABS,ioos:station:wmo:42051:1,2013-07-05T20:30:00Z,29.6350,-93.6417,2.0,32.0083,11111222 
TABS,ioos:station:wmo:42051:1,2013-07-05T21:00:00Z,29.6350,-93.6417,2.0,32.0042,11111222 
TABS,ioos:station:wmo:42051:1,2013-07-05T21:30:00Z,29.6350,-93.6417,2.0,32.0034,11111222 
TABS,ioos:station:wmo:42051:1,2013-07-05T22:00:00Z,29.6350,-93.6417,2.0,32.0081,11111222 
TABS,ioos:station:wmo:42051:1,2013-07-05T22:30:00Z,29.6350,-93.6417,2.0,32.0163,11111222 
TABS,ioos:station:wmo:42051:1,2013-07-05T23:00:00Z,29.6350,-93.6417,2.0,32.0202,11111222 
TABS,ioos:station:wmo:42051:1,2013-07-05T23:30:00Z,29.6350,-93.6417,2.0,32.0339,11111222 
TABS,ioos:station:wmo:42051:1,2013-07-06T00:00:00Z,29.6350,-93.6417,2.0,32.047,11111222 
TABS,ioos:station:wmo:42051:1,2013-07-06T00:30:00Z,29.6350,-93.6417,2.0,32.0563,11111222 
TABS,ioos:station:wmo:42051:1,2013-07-06T01:00:00Z,29.6350,-93.6417,2.0,32.0661,11111222 
TABS,ioos:station:wmo:42051:1,2013-07-06T01:30:00Z,29.6350,-93.6417,2.0,32.0771,11111222 
TABS,ioos:station:wmo:42051:1,2013-07-06T02:00:00Z,29.6350,-93.6417,2.0,32.0866,11111222 
TABS,ioos:station:wmo:42051:1,2013-07-06T02:30:00Z,29.6350,-93.6417,2.0,32.0944,11111222 
TABS,ioos:station:wmo:42051:1,2013-07-06T03:00:00Z,29.6350,-93.6417,2.0,32.1049,11111222 
TABS,ioos:station:wmo:42051:1,2013-07-06T03:30:00Z,29.6350,-93.6417,2.0,32.1113,11111222 
TABS,ioos:station:wmo:42051:1,2013-07-06T04:00:00Z,29.6350,-93.6417,2.0,32.1142,11111222 
TABS,ioos:station:wmo:42051:1,2013-07-06T04:30:00Z,29.6350,-93.6417,2.0,32.1212,11111222 
TABS,ioos:station:wmo:42051:1,2013-07-06T05:00:00Z,29.6350,-93.6417,2.0,32.1268,11111222 
TABS,ioos:station:wmo:42051:1,2013-07-06T05:30:00Z,29.6350,-93.6417,2.0,32.1261,11111222 
TABS,ioos:station:wmo:42051:1,2013-07-06T06:00:00Z,29.6350,-93.6417,2.0,32.0975,11111222 
TABS,ioos:station:wmo:42051:1,2013-07-06T06:30:00Z,29.6350,-93.6417,2.0,32.0549,11111222 
TABS,ioos:station:wmo:42051:1,2013-07-06T07:00:00Z,29.6350,-93.6417,2.0,32.0042,11111222 
TABS,ioos:station:wmo:42051:1,2013-07-06T07:30:00Z,29.6350,-93.6417,2.0,31.9651,11111222 
TABS,ioos:station:wmo:42051:1,2013-07-06T08:00:00Z,29.6350,-93.6417,2.0,31.9386,11111222 
TABS,ioos:station:wmo:42051:1,2013-07-06T08:30:00Z,29.6350,-93.6417,2.0,31.9093,11111222 
TABS,ioos:station:wmo:42051:1,2013-07-06T09:00:00Z,29.6350,-93.6417,2.0,31.8736,11111222 
TABS,ioos:station:wmo:42051:1,2013-07-06T09:30:00Z,29.6350,-93.6417,2.0,31.8185,11111222 
TABS,ioos:station:wmo:42051:1,2013-07-06T10:00:00Z,29.6350,-93.6417,2.0,31.7826,11111222 
TABS,ioos:station:wmo:42051:1,2013-07-06T10:30:00Z,29.6350,-93.6417,2.0,31.7495,11111222 
TABS,ioos:station:wmo:42051:1,2013-07-06T11:00:00Z,29.6350,-93.6417,2.0,31.7293,11111222 
TABS,ioos:station:wmo:42051:1,2013-07-06T11:30:00Z,29.6350,-93.6417,2.0,31.699,11111222 
TABS,ioos:station:wmo:42051:1,2013-07-06T12:00:00Z,29.6350,-93.6417,2.0,31.6608,11111222 
TABS,ioos:station:wmo:42051:1,2013-07-06T12:30:00Z,29.6350,-93.6417,2.0,31.6342,11111222 